This is the latest recevied weather packets stored in our database for station/object CE3JSG-13. If no packets are shown the sender has not sent any weather packets the latest 10 day(s).
| Time | Temp. | Humidity | Pressure | Rain* | Wind** | Luminosity | Snow |
|---|---|---|---|---|---|---|---|
| 1777813036 | 15° C | 64% | 1018.3 hPa | - | - | - | - |
| 1777812616 | 14.44° C | 65% | 1017.4 hPa | - | - | - | - |
| 1777812196 | 13.89° C | 67% | 1017.3 hPa | - | - | - | - |
| 1777811776 | 13.89° C | 69% | 1017.5 hPa | - | - | - | - |
| 1777811356 | 13.33° C | 69% | 1017.5 hPa | - | - | - | - |
| 1777810936 | 12.22° C | 71% | 1018.4 hPa | - | - | - | - |
| 1777810516 | 12.22° C | 73% | 1018.2 hPa | - | - | - | - |
| 1777810095 | 12.22° C | 74% | 1018.1 hPa | - | - | - | - |
| 1777809676 | 11.67° C | 74% | 1017.8 hPa | - | - | - | - |
| 1777809256 | 11.67° C | 76% | 1017.5 hPa | - | - | - | - |
| 1777808836 | 11.11° C | 78% | 1018.3 hPa | - | - | - | - |
| 1777808416 | 10.56° C | 78% | 1018.1 hPa | - | - | - | - |
| 1777807996 | 10.56° C | 79% | 1018.4 hPa | - | - | - | - |
| 1777807576 | 10.56° C | 80% | 1018.7 hPa | - | - | - | - |
| 1777807155 | 10.56° C | 81% | 1018.2 hPa | - | - | - | - |
| 1777806736 | 10.56° C | 81% | 1019.1 hPa | - | - | - | - |
| 1777806316 | 11.11° C | 78% | 1018 hPa | - | - | - | - |
| 1777805895 | 11.11° C | 77% | 1018.9 hPa | - | - | - | - |
| 1777805476 | 11.67° C | 74% | 1017.5 hPa | - | - | - | - |
| 1777805056 | 11.67° C | 75% | 1017.4 hPa | - | - | - | - |
| 1777804636 | 11.67° C | 74% | 1017.9 hPa | - | - | - | - |
| 1777804216 | 11.67° C | 74% | 1017.7 hPa | - | - | - | - |
| 1777803795 | 11.67° C | 75% | 1017.3 hPa | - | - | - | - |
| 1777803376 | 11.67° C | 75% | 1017.6 hPa | - | - | - | - |
| 1777802956 | 11.67° C | 75% | 1017.5 hPa | - | - | - | - |
* Rain since midnight (hover to see other rain measurements)
** Current wind speed in m/s (hover to see current wind gust speed)